KC1DMA Weather Reports


Display with metric or nautical units.
time (UTC)temp
F
wind
direction
speed
MPH
gust
MPH
rain 1hr
in
rain 24hr
in
rain mn
in
humidity
%
barometer
mb
20260506182819 57 135 1.0 5.0 0.00 0.00 0.00 96 1010.3
20260506182315 57 117 3.0 3.0 0.00 0.00 0.00 96 1010.1
20260506181808 57 131 3.0 8.0 0.00 0.00 0.00 96 1010.1
20260506181305 57 98 4.0 13.0 0.00 0.00 0.00 96 1010.1
20260506180802 57 135 2.0 11.0 0.00 0.00 0.00 96 1009.9
20260506180258 58 203 2.0 5.0 0.00 0.00 0.00 96 1009.7
20260506175754 58 127 2.0 9.0 0.00 0.00 0.00 95 1009.8
20260506175251 58 191 3.0 6.0 0.00 0.00 0.00 95 1010.0
20260506174749 58 126 0.0 4.0 0.00 0.00 0.00 95 1010.3
20260506174246 58 137 3.0 6.0 0.00 0.00 0.00 95 1010.2
20260506173743 58 165 4.0 5.0 0.00 0.00 0.00 94 1010.4
20260506173240 58 128 2.0 5.0 0.00 0.00 0.00 94 1010.5
20260506172737 58 96 2.0 8.0 0.00 0.00 0.00 93 1010.7
20260506172233 58 143 4.0 5.0 0.00 0.00 0.00 93 1010.8
20260506171731 59 161 4.0 6.0 0.00 0.00 0.00 91 1010.9
20260506171228 59 129 5.0 8.0 0.00 0.00 0.00 90 1011.0
20260506170725 59 142 1.0 6.0 0.00 0.00 0.00 88 1011.3
20260506170216 60 179 2.0 2.0 0.00 0.00 0.00 87 1011.3
20260506165715 60 102 4.0 4.0 0.00 0.00 0.00 85 1011.3
20260506165211 61 89 0.0 7.0 0.00 0.00 0.00 83 1011.3
20260506164709 61 107 1.0 5.0 0.00 0.00 0.00 83 1011.4
20260506164206 62 124 2.0 5.0 0.00 0.00 0.00 81 1011.3
20260506163702 62 237 7.0 12.0 0.00 0.00 0.00 79 1011.4
20260506163157 62 199 5.0 12.0 0.00 0.00 0.00 79 1011.2
20260506162653 62 111 1.0 5.0 0.00 0.00 0.00 79 1011.3
20260506162151 63 136 3.0 6.0 0.00 0.00 0.00 78 1011.5
20260506161648 63 166 7.0 11.0 0.00 0.00 0.00 77 1011.3
20260506161145 63 157 9.0 9.0 0.00 0.00 0.00 77 1011.3
20260506160643 63 146 2.0 6.0 0.00 0.00 0.00 77 1011.5
20260506160139 64 120 5.0 7.0 0.00 0.00 0.00 76 1011.5
20260506155637 64 238 2.0 7.0 0.00 0.00 0.00 76 1011.6
20260506155134 64 141 1.0 6.0 0.00 0.00 0.00 77 1011.9
20260506153236 64 176 2.0 8.0 0.00 0.00 0.00 77 1011.8
20260506152733 64 98 2.0 3.0 0.00 0.00 0.00 76 1011.6
20260506152231 64 168 2.0 4.0 0.00 0.00 0.00 76 1011.5
20260506151730 64 148 4.0 7.0 0.00 0.00 0.00 77 1011.5
20260506151225 64 216 4.0 9.0 0.00 0.00 0.00 76 1011.5
20260506150722 64 147 1.0 9.0 0.00 0.00 0.00 76 1011.5
20260506150220 64 25 2.0 5.0 0.00 0.00 0.00 75 1011.7
20260506145717 65 154 2.0 8.0 0.00 0.00 0.00 74 1011.7
20260506145213 66 74 3.0 6.0 0.00 0.00 0.00 74 1011.6
20260506144710 65 273 4.0 4.0 0.00 0.00 0.00 74 1011.7
20260506144207 65 145 0.0 10.0 0.00 0.00 0.00 74 1011.8
20260506143705 65 137 5.0 10.0 0.00 0.00 0.00 74 1011.9
20260506143203 65 125 5.0 10.0 0.00 0.00 0.00 74 1011.8
20260506142701 65 183 4.0 9.0 0.00 0.00 0.00 73 1011.7
20260506142158 66 152 9.0 12.0 0.00 0.00 0.00 72 1011.8
20260506141655 65 150 6.0 9.0 0.00 0.00 0.00 73 1011.9
20260506141153 66 118 2.0 9.0 0.00 0.00 0.00 73 1011.8
20260506140651 66 159 4.0 10.0 0.00 0.00 0.00 72 1011.9
20260506140148 64 199 7.0 13.0 0.00 0.00 0.00 75 1012.0
20260506135645 64 100 3.0 10.0 0.00 0.00 0.00 75 1012.0
20260506135141 64 68 5.0 8.0 0.00 0.00 0.00 76 1012.0
20260506134638 64 81 4.0 10.0 0.00 0.00 0.00 76 1011.9
20260506134134 64 38 1.0 6.0 0.00 0.00 0.00 76 1011.8
20260506133631 64 161 5.0 10.0 0.00 0.00 0.00 76 1011.6
20260506133128 64 152 4.0 20.0 0.00 0.00 0.00 77 1011.7
20260506132626 63 167 2.0 5.0 0.00 0.00 0.00 78 1011.8
20260506132122 63 174 4.0 11.0 0.00 0.00 0.00 79 1011.8
20260506131620 62 142 4.0 9.0 0.00 0.00 0.00 79 1012.0
20260506131116 62 142 8.0 8.0 0.00 0.00 0.00 80 1011.7
20260506130613 62 144 6.0 12.0 0.00 0.00 0.00 80 1011.9
20260506130111 62 281 2.0 10.0 0.00 0.00 0.00 80 1011.8
20260506125609 62 159 5.0 7.0 0.00 0.00 0.00 80 1011.9
20260506125106 62 128 4.0 8.0 0.00 0.00 0.00 80 1012.0
20260506124603 62 205 2.0 8.0 0.00 0.00 0.00 80 1012.0
20260506124101 62 219 4.0 10.0 0.00 0.00 0.00 81 1012.4
20260506123559 62 173 4.0 11.0 0.00 0.00 0.00 81 1012.5
20260506123057 62 137 4.0 9.0 0.00 0.00 0.00 80 1012.6
20260506122553 62 163 2.0 9.0 0.00 0.00 0.00 81 1012.5
20260506122052 61 180 2.0 5.0 0.00 0.00 0.00 82 1012.4
20260506121549 61 244 1.0 6.0 0.00 0.00 0.00 83 1012.5
20260506121045 61 175 2.0 7.0 0.00 0.00 0.00 83 1012.3
20260506120543 60 151 13.0 14.0 0.00 0.00 0.00 85 1012.4
20260506120040 59 204 3.0 6.0 0.00 0.00 0.00 87 1012.5
20260506115538 58 131 7.0 9.0 0.00 0.00 0.00 88 1012.4
20260506115036 59 79 3.0 10.0 0.00 0.00 0.00 88 1012.2
20260506114533 58 169 2.0 6.0 0.00 0.00 0.00 88 1012.2
20260506114032 58 186 2.0 5.0 0.00 0.00 0.00 88 1012.2
20260506113529 58 246 4.0 11.0 0.00 0.00 0.00 88 1012.1
20260506113026 57 154 2.0 9.0 0.00 0.00 0.00 90 1012.3
20260506112523 57 79 3.0 4.0 0.00 0.00 0.00 91 1012.3
20260506112020 57 256 4.0 4.0 0.00 0.00 0.00 90 1012.3
20260506111518 57 125 2.0 7.0 0.00 0.00 0.00 90 1012.4
20260506111015 57 133 2.0 6.0 0.00 0.00 0.00 90 1012.7
20260506110513 57 76 2.0 9.0 0.00 0.00 0.00 91 1012.4
20260506110010 57 129 3.0 7.0 0.00 0.00 0.00 91 1012.3
20260506105506 57 157 3.0 6.0 0.00 0.00 0.00 91 1012.4
20260506105003 57 180 3.0 4.0 0.00 0.00 0.00 91 1012.3
20260506104501 56 112 0.0 9.0 0.00 0.00 0.00 92 1012.2
20260506103959 56 150 4.0 9.0 0.00 0.00 0.00 92 1012.5
20260506103455 56 137 5.0 6.0 0.00 0.00 0.00 92 1012.3
20260506102952 56 110 2.0 8.0 0.00 0.00 0.00 92 1012.4
20260506102451 56 151 6.0 6.0 0.00 0.00 0.00 92 1012.3
20260506101948 55 200 3.0 5.0 0.00 0.00 0.00 92 1012.4
20260506101444 55 173 3.0 6.0 0.00 0.00 0.00 92 1012.2
20260506100941 55 140 2.0 7.0 0.00 0.00 0.00 92 1012.3
20260506100440 55 140 4.0 5.0 0.00 0.00 0.00 92 1012.3
20260506095937 55 77 2.0 8.0 0.00 0.00 0.00 92 1012.2
20260506095436 55 160 2.0 5.0 0.00 0.00 0.00 92 1012.3
20260506094931 56 151 2.0 5.0 0.00 0.00 0.00 92 1012.1
20260506094430 56 130 0.0 6.0 0.00 0.00 0.00 91 1012.1
20260506093927 56 64 2.0 10.0 0.00 0.00 0.00 91 1012.1
20260506093425 56 86 2.0 6.0 0.00 0.00 0.00 91 1012.2
20260506092923 56 137 6.0 11.0 0.00 0.00 0.00 91 1012.3
20260506092421 56 223 2.0 3.0 0.00 0.00 0.00 91 1012.4
20260506091917 56 185 10.0 12.0 0.00 0.00 0.00 91 1012.1
20260506091415 56 203 2.0 6.0 0.00 0.00 0.00 90 1012.1
20260506090912 56 104 6.0 11.0 0.00 0.00 0.00 90 1012.4
20260506090410 56 114 1.0 6.0 0.00 0.00 0.00 90 1012.3
20260506085906 56 40 1.0 7.0 0.00 0.00 0.00 90 1012.3
20260506085403 56 209 2.0 7.0 0.00 0.00 0.00 90 1012.4
20260506084859 56 132 4.0 10.0 0.00 0.00 0.00 90 1012.3
20260506084356 56 185 1.0 10.0 0.00 0.00 0.00 90 1012.4
20260506083852 56 122 2.0 7.0 0.00 0.00 0.00 89 1012.5
20260506083350 56 81 2.0 6.0 0.00 0.00 0.00 89 1012.4
20260506082847 56 76 2.0 6.0 0.00 0.00 0.00 89 1012.3
20260506082343 56 84 3.0 8.0 0.00 0.00 0.00 89 1012.3
20260506081839 56 160 4.0 10.0 0.00 0.00 0.00 89 1012.4
20260506081337 56 95 2.0 9.0 0.00 0.00 0.00 89 1012.1
20260506080835 56 156 3.0 6.0 0.00 0.00 0.00 88 1012.2
20260506080332 57 99 3.0 8.0 0.00 0.00 0.00 88 1012.3
20260506073315 57 355 4.0 8.0 0.00 0.00 0.00 87 1012.5
20260506072812 57 202 2.0 7.0 0.00 0.00 0.00 87 1012.4
20260506072310 57 192 0.0 9.0 0.00 0.00 0.00 86 1012.5
20260506071808 57 107 5.0 7.0 0.00 0.00 0.00 86 1012.5
20260506071306 57 2 2.0 8.0 0.00 0.00 0.00 86 1012.3
20260506070802 57 165 7.0 8.0 0.00 0.00 0.00 86 1012.5
20260506070259 57 119 4.0 6.0 0.00 0.00 0.00 85 1012.4
20260506062236 58 146 4.0 11.0 0.00 0.00 0.00 84 1012.4
20260506061732 58 10 4.0 6.0 0.00 0.00 0.00 84 1012.4
20260506061230 58 189 7.0 8.0 0.00 0.00 0.00 84 1012.2
20260506060728 58 123 3.0 9.0 0.00 0.00 0.00 83 1012.4
20260506060225 58 112 3.0 17.0 0.00 0.00 0.00 83 1012.4
20260506051156 59 156 3.0 9.0 0.00 0.00 0.00 80 1012.9
20260506050655 59 101 4.0 9.0 0.00 0.00 0.00 80 1012.7
20260506050151 60 145 5.0 12.0 0.00 0.00 0.00 80 1012.6
20260506044642 60 206 2.0 11.0 0.00 0.00 0.00 80 1012.8
20260506044139 60 142 3.0 10.0 0.00 0.00 0.00 79 1012.9
20260506043636 60 156 2.0 8.0 0.00 0.00 0.00 79 1012.9
20260506043134 60 190 2.0 8.0 0.00 0.00 0.00 79 1012.9
20260506042633 60 145 5.0 9.0 0.00 0.00 0.00 79 1012.9
20260506042131 61 127 6.0 13.0 0.00 0.00 0.00 78 1012.8
20260506041629 61 138 7.0 11.0 0.00 0.00 0.00 78 1012.9
20260506041125 61 180 5.0 10.0 0.00 0.00 0.00 78 1012.7
20260506040623 61 150 3.0 13.0 0.00 0.00 0.00 78 1012.9
20260506040120 61 217 1.0 9.0 0.00 0.00 0.00 78 1012.7
20260506035617 61 199 4.0 12.0 0.00 0.00 0.00 77 1013.1
20260506035113 61 169 1.0 9.0 0.00 0.00 0.00 77 1013.1
20260506034611 60 104 4.0 4.0 0.00 0.00 0.00 77 1013.0
20260506034108 61 126 3.0 6.0 0.00 0.00 0.00 77 1012.8
20260506033605 61 20 4.0 6.0 0.00 0.00 0.00 76 1013.0
20260506033101 61 151 8.0 12.0 0.00 0.00 0.00 76 1012.9
20260506032559 61 169 10.0 15.0 0.00 0.00 0.00 75 1012.9
20260506032056 61 177 5.0 9.0 0.00 0.00 0.00 74 1012.9
20260506031553 61 125 3.0 13.0 0.00 0.00 0.00 74 1013.0
20260506031050 61 178 6.0 11.0 0.00 0.00 0.00 73 1013.0
20260506030548 61 113 4.0 10.0 0.00 0.00 0.00 72 1013.1
20260506030045 61 135 12.0 14.0 0.00 0.00 0.00 72 1012.8
20260506025542 62 121 6.0 11.0 0.00 0.00 0.00 71 1012.8
20260506025038 62 178 4.0 9.0 0.00 0.00 0.00 71 1013.0
20260506024535 62 141 2.0 11.0 0.00 0.00 0.00 71 1012.7
20260506024031 62 131 3.0 12.0 0.00 0.00 0.00 71 1012.8
20260506023528 62 135 3.0 17.0 0.00 0.00 0.00 70 1012.6
20260506023026 62 218 3.0 10.0 0.00 0.00 0.00 71 1012.9
20260506022523 62 117 3.0 8.0 0.00 0.00 0.00 70 1012.7
20260506022020 62 71 4.0 17.0 0.00 0.00 0.00 70 1012.8
20260506021518 62 133 4.0 8.0 0.00 0.00 0.00 70 1012.6
20260506021015 62 134 9.0 9.0 0.00 0.00 0.00 71 1012.5
20260506020512 62 162 1.0 8.0 0.00 0.00 0.00 71 1012.7
20260506020010 61 79 4.0 7.0 0.00 0.00 0.00 71 1012.7
20260506015507 61 195 2.0 12.0 0.00 0.00 0.00 71 1012.7
20260506015003 61 15 3.0 8.0 0.00 0.00 0.00 71 1012.6
20260506014501 61 115 10.0 11.0 0.00 0.00 0.00 70 1012.6
20260506013957 61 168 5.0 10.0 0.00 0.00 0.00 71 1012.5
20260506013455 62 111 7.0 9.0 0.00 0.00 0.00 70 1012.6
20260506012950 62 125 5.0 10.0 0.00 0.00 0.00 70 1012.5
20260506012447 62 78 2.0 7.0 0.00 0.00 0.00 70 1012.3
20260506011944 62 181 5.0 13.0 0.00 0.00 0.00 69 1012.4
20260506011442 62 254 4.0 11.0 0.00 0.00 0.00 69 1012.3
20260506010938 62 132 5.0 11.0 0.00 0.00 0.00 69 1012.3
20260506010437 62 98 5.0 5.0 0.00 0.00 0.00 69 1012.3
20260506005933 62 127 2.0 7.0 0.00 0.00 0.00 69 1012.0
20260506005431 62 191 3.0 13.0 0.00 0.00 0.00 69 1012.1
20260506004926 62 170 2.0 8.0 0.00 0.00 0.00 68 1011.9
20260506004424 62 66 5.0 6.0 0.00 0.00 0.00 68 1012.0
20260506003920 62 288 3.0 9.0 0.00 0.00 0.00 67 1011.9
20260506003417 62 208 3.0 8.0 0.00 0.00 0.00 67 1012.0
20260506002913 62 171 5.0 6.0 0.00 0.00 0.00 67 1011.5
20260506002409 63 162 4.0 8.0 0.00 0.00 0.00 67 1011.4
20260506001905 63 269 2.0 11.0 0.00 0.00 0.00 66 1011.6
20260506001402 63 234 2.0 13.0 0.00 0.00 0.00 66 1011.6
20260506000859 63 216 2.0 9.0 0.00 0.00 0.00 66 1011.4
20260506000357 63 99 1.0 9.0 0.00 0.00 0.00 66 1011.5
20260505235853 63 161 7.0 7.0 0.00 0.00 0.00 65 1011.3
20260505235351 63 195 1.0 11.0 0.00 0.00 0.00 65 1011.2
20260505234848 64 295 2.0 6.0 0.00 0.00 0.00 65 1011.3
20260505234346 64 151 4.0 11.0 0.00 0.00 0.00 64 1011.0
20260505233842 64 164 3.0 11.0 0.00 0.00 0.00 64 1011.2
20260505233340 64 157 4.0 5.0 0.00 0.00 0.00 65 1010.9
20260505232837 65 272 2.0 7.0 0.00 0.00 0.00 64 1010.9
20260505232335 65 145 8.0 9.0 0.00 0.00 0.00 63 1010.8
20260505231831 66 92 3.0 5.0 0.00 0.00 0.00 63 1010.9
20260505231329 66 89 2.0 15.0 0.00 0.00 0.00 62 1010.7
20260505230827 66 119 4.0 12.0 0.00 0.00 0.00 62 1010.5
20260505230324 66 194 3.0 6.0 0.00 0.00 0.00 62 1010.4
20260505225821 67 142 9.0 10.0 0.00 0.00 0.00 61 1010.6
20260505225318 67 180 3.0 11.0 0.00 0.00 0.00 61 1010.4
20260505224813 68 143 9.0 10.0 0.00 0.00 0.00 60 1010.2
20260505224311 68 92 4.0 5.0 0.00 0.00 0.00 60 1010.5
20260505223808 68 92 4.0 5.0 0.00 0.00 0.00 60 1010.3
20260505223305 68 153 0.0 4.0 0.00 0.00 0.00 60 1010.6
20260505222800 68 153 0.0 4.0 0.00 0.00 0.00 60 1010.5
20260505222257 68 128 3.0 4.0 0.00 0.00 0.00 60 1010.6
20260505221754 69 134 4.0 4.0 0.00 0.00 0.00 60 1010.6
20260505221251 68 123 7.0 8.0 0.00 0.00 0.00 60 1010.4
20260505220748 69 147 8.0 9.0 0.00 0.00 0.00 60 1010.4
20260505220245 69 242 2.0 6.0 0.00 0.00 0.00 59 1010.4
20260505215743 69 182 5.0 6.0 0.00 0.00 0.00 58 1010.3
20260505215241 70 242 2.0 8.0 0.00 0.00 0.00 58 1010.3
20260505214738 70 225 0.0 6.0 0.00 0.00 0.00 58 1010.4
20260505214235 70 193 4.0 13.0 0.00 0.00 0.00 58 1010.4
20260505213732 71 191 5.0 9.0 0.00 0.00 0.00 56 1010.0
20260505213230 70 160 4.0 6.0 0.00 0.00 0.00 58 1010.3
20260505212726 70 182 10.0 11.0 0.00 0.00 0.00 57 1010.1
20260505212223 70 169 3.0 6.0 0.00 0.00 0.00 57 1010.1
20260505211715 70 211 1.0 5.0 0.00 0.00 0.00 58 1010.1
20260505211212 70 229 3.0 12.0 0.00 0.00 0.00 58 1010.2
20260505210709 72 162 4.0 4.0 0.00 0.00 0.00 56 1010.2
20260505210205 70 171 3.0 10.0 0.00 0.00 0.00 57 1010.4
20260505205703 71 196 2.0 7.0 0.00 0.00 0.00 57 1010.2
20260505205201 71 231 3.0 11.0 0.00 0.00 0.00 57 1010.1
20260505204656 71 260 2.0 16.0 0.00 0.00 0.00 57 1010.3
20260505204154 73 168 7.0 7.0 0.00 0.00 0.00 55 1010.2
20260505203651 72 174 4.0 11.0 0.00 0.00 0.00 56 1010.0
20260505203149 73 167 4.0 17.0 0.00 0.00 0.00 54 1010.2
20260505202644 72 180 3.0 11.0 0.00 0.00 0.00 55 1009.9
20260505202140 73 246 4.0 6.0 0.00 0.00 0.00 55 1010.1
20260505201637 72 171 9.0 12.0 0.00 0.00 0.00 55 1010.2
20260505201135 72 146 6.0 13.0 0.00 0.00 0.00 55 1010.3
20260505200632 73 192 2.0 5.0 0.00 0.00 0.00 55 1010.4
20260505200129 72 142 6.0 11.0 0.00 0.00 0.00 55 1010.5
20260505195625 73 182 2.0 8.0 0.00 0.00 0.00 54 1010.5
20260505195123 73 215 5.0 7.0 0.00 0.00 0.00 55 1010.2
20260505194615 74 62 2.0 4.0 0.00 0.00 0.00 55 1010.5
20260505194110 73 158 13.0 14.0 0.00 0.00 0.00 54 1010.4
20260505193608 72 124 6.0 16.0 0.00 0.00 0.00 55 1010.6
20260505193104 73 289 3.0 6.0 0.00 0.00 0.00 55 1010.4
20260505192603 74 234 2.0 4.0 0.00 0.00 0.00 54 1010.5
20260505192059 73 126 3.0 8.0 0.00 0.00 0.00 55 1010.7
20260505191552 74 195 7.0 10.0 0.00 0.00 0.00 54 1010.6
20260505191050 73 174 2.0 3.0 0.00 0.00 0.00 56 1010.8
20260505190550 73 174 2.0 8.0 0.00 0.00 0.00 56 1010.9
20260505190046 73 193 5.0 6.0 0.00 0.00 0.00 54 1010.8
20260505185543 73 230 5.0 10.0 0.00 0.00 0.00 55 1010.8
20260505185039 74 180 7.0 11.0 0.00 0.00 0.00 54 1010.8
20260505184536 75 190 1.0 6.0 0.00 0.00 0.00 55 1011.0
20260505184033 73 163 8.0 11.0 0.00 0.00 0.00 54 1011.0
20260505183529 74 173 7.0 11.0 0.00 0.00 0.00 54 1010.9
20260505183027 73 83 3.0 14.0 0.00 0.00 0.00 54 1010.9